Regional Weather Roundup
Issued by NWS Cleveland, OH

Home | Current Version | Previous Version | Graphics & Text | Print | Product List | Glossary On
Versions: 1 2 3 4 5 6 7 8 9 10 11 12 13 14 15 16 17 18 19 20 21 22 23 24 25 26 27 28 29 30 31 32 33 34 35 36 37 38 39 40 41 42 43 44 45 46 47 48 49 50
000
ASUS41 KCLE 220000
RWRCLE
OHIO REGIONAL WEATHER ROUNDUP
NATIONAL WEATHER SERVICE WILMINGTON, OH
800 PM EDT THU AUG 21 2014

NOTE: "FAIR" INDICATES FEW OR NO CLOUDS BELOW 12,000 FEET WITH NO
SIGNIFICANT WEATHER AND/OR OBSTRUCTIONS TO VISIBILITY.

OHZ001>008-015>018-024>027-034-035-043-044-220100-
   NORTHWEST OHIO

CITY           SKY/WX    TMP DP  RH WIND       PRES   REMARKS
DEFIANCE       PTCLDY    76  70  82 S3        29.98S
FINDLAY        PTCLDY    74  68  81 SW6       29.99F
TOLEDO EXPRESS PTCLDY    77  69  76 W9        29.97R
TOLEDO METCALF MOCLDY    78  69  73 SW8       29.98S
LIMA           PTCLDY    76  70  82 S5        30.01S
$$

OHZ009>014-019>023-028>033-038-089-220100-
   NORTHEAST OHIO

CITY           SKY/WX    TMP DP  RH WIND       PRES   REMARKS
CLE-HOPKINS    MOCLDY    74  68  81 SW9       30.00S
CLE-LAKEFRONT  CLOUDY    75  70  84 CALM      29.97S
CUY CO. ARPT   MOCLDY    77  72  83 W9        30.00R
LORAIN-ELYRIA  MOCLDY    77  68  73 SW7       29.99F
ASHTABULA      MOCLDY    74  68  81 W5        30.00S
AKRON-CANTON   CLOUDY    74  66  76 SW7       30.02S
WOOSTER        NOT AVBL
MANSFIELD      CLOUDY    73  68  84 SW5       30.03S
YOUNGSTOWN     RAIN      73  68  84 SW5       30.01R
$$

OHZ042-051>053-060>062-070>072-077>081-220100-
  SOUTHWEST OHIO

CITY           SKY/WX    TMP DP  RH WIND       PRES   REMARKS
CINC-COVINGTON MOCLDY    80  74  81 S5        30.01F
CINC-LUNKEN    CLEAR     80  74  81 CALM      30.00F
HAMILTON       PTCLDY    80  73  79 SE3       30.00S
DAYTON         NOT AVBL
WRIGHT-PAT AFB NOT AVBL
DAYTON GENERAL PTCLDY    77  72  84 SE6       30.01F
WILMINGTON     PTCLDY    75  71  87 S3        30.03F FOG
$$

OHZ036-037-039>041-045>050-054>059-063>069-073>076-082>088-220100-
  CENTRAL AND SOUTHEAST OHIO

CITY           SKY/WX    TMP DP  RH WIND       PRES   REMARKS
COLUMBUS       MOCLDY    75  68  78 SW3       30.03S
OSU AIRPORT    MOCLDY    73  69  87 S3        30.03S
BOLTON FIELD   NOT AVBL
RICKENBACK AFB NOT AVBL
NEWARK         MOCLDY    72  67  84 SW3       30.04R
MARION         PTCLDY    73  66  78 W5        30.03R
LANCASTER      MOCLDY    73  69  87 CALM      30.04S
ZANESVILLE     MOCLDY    73  67  81 SW3       30.04F
NEW PHILLY     CLOUDY    72  69  90 CALM      30.03F
$$



USA.gov is the U.S. government's official web portal to all federal, state and local government web resources and services.